Weather in Sukhaya Vyazovka

Russia / Samara Oblast     52°53′02″N   50°13′04″E
temp.,
°C
wind,
m/s
gust,
m/s
humid.,
%
clouds,
%
prec.,
mm/h
press.,
hPa
HPBL,
m
20 june, sun
sun2001:00+16w35851 0.0 102373
04:00+15w34900 0.0 102361
07:00+19wnw35790 0.0 1023181
10:00+25wnw34620 0.0 1022645
13:00+28w44500 0.0 10221611
16:00+29nw34474 0.0 10211923
19:00+26nne34670 0.0 1021170
22:00+21nnw22760 0.0 102211
21 june, mon
mon2101:00+20nne11860 0.0 102211
04:00+19e22900 0.0 102316
07:00+22ese23810 0.0 1024208
10:00+26sse22640 0.0 1023775
13:00+28wsw22547 1.4 10231486
16:00+29sse014871 1.4 10221593
19:00+28nw126211 0.0 1021145
22:00+23ene117344 0.0 102211
22 june, tue
tue2201:00+23se007170 0.0 102211
04:00+21wsw11821 0.0 102311
07:00+24wnw11730 0.0 1023137
10:00+28w22560 0.0 1023748
13:00+30w34480 0.0 10231813
16:00+30w444636 0.0 10221771
19:00+27wnw226296 0.0 102125
22:00+24wnw22690 0.0 102213
23 june, wed
wed2301:00+22wnw22745 0.0 102111
04:00+21wnw12775 0.0 102111
07:00+24nw11684 0.0 1021113
10:00+28wnw22555 0.0 1021702
13:00+31wsw344349 0.0 10202207
16:00+25ssw3466100 0.5 102055
19:00+23sse34771 0.7 102070
22:00+22w11720 0.7 101911
24 june, thu
thu2401:00+21wnw22764 0.0 101920
04:00+20w22780 0.0 101822
07:00+24nw24730 0.0 1018185
10:00+28nw35540 0.0 1018977
13:00+31nne55463 0.0 10172049
16:00+30ne555033 0.0 10171455
19:00+27nne366611 0.1 1018248
22:00+22nne128493 1.8 101811